TEVEL2-5

Last updated on Fri Dec 19 2025 00:03:12 GMT+0000 (Coordinated Universal Time)

1 63214U 25052E 25352.61890214 .00013839 00000+0 52131-3 0 9996 2 63214 97.4108 244.3941 0004788 51.0867 309.0798 15.27195805 42485
UTC large
Height (km)
Speed (km/s)
/
Latitude / Longitude
Inclination (degrees)
Orbital Period (minutes)
Azimuth
Elevation
Range (km)
Doppler Factor

Next 0 passes for location: London (51.5072 / 0.1276)

Sorry there are no passes over London.